Wind_Speed
47 47 46 46 44 43 44 43 44 43 42 42 41 39 38 36 33 32 29 28 27 24 22 20 18 15 13 11 9 7 6 5 4 4 6 9 12 11 9 11 6 3 7 9 10 10 6 2 1 5 3 2 2 2 3 3 2 1 1 2 3 4 4 2 4 4 6 6 6 9 8 8 8 4 3 3 2 5 5 4 7 9 8 7 12 21 25 25
46 48 47 46 45 44 44 44 44 44 43 42 41 40 39 37 35 32 30 29 29 25 23 20 18 16 13 12 10 6 4 3 3 5 12 15 11 10 10 11 10 4 6 7 9 11 8 3 2 3 3 2 2 2 3 3 2 2 2 3 4 5 2 2 2 2 5 8 8 8 8 7 9 7 4 4 5 6 5 5 6 8 7 6 12 20 22 23
47 48 48 46 46 45 45 45 44 43 43 41 40 39 39 38 36 33 31 31 30 28 24 20 17 15 13 14 11 7 3 1 3 8 17 18 12 11 11 10 10 7 5 3 6 10 10 9 7 5 2 3 3 3 2 2 3 3 3 3 5 5 1 4 5 4 4 10 10 8 7 6 9 8 4 5 6 7 6 6 7 7 8 7 9 17 20 20
48 47 48 47 46 46 45 45 45 43 42 41 40 38 38 37 36 34 33 32 30 29 27 23 19 15 13 13 10 7 4 3 4 8 17 18 15 14 12 10 8 5 4 3 6 7 11 12 8 4 1 3 3 4 3 3 3 2 3 3 3 4 1 4 5 5 5 8 9 8 7 4 8 7 4 6 6 6 7 7 9 9 12 12 9 14 18 18
50 48 47 47 46 46 46 45 45 43 43 41 39 38 36 36 36 35 34 33 31 30 29 27 22 17 15 12 9 7 7 1 3 5 13 14 17 16 13 11 8 4 4 4 7 6 11 11 6 3 1 3 3 3 3 5 3 1 4 4 2 4 2 4 5 5 5 5 8 7 8 5 6 5 6 8 5 4 3 4 9 10 13 15 14 14 16 15
48 48 47 48 47 47 46 46 45 44 43 41 39 38 36 35 35 35 34 34 32 30 28 27 22 18 16 13 11 10 7 3 2 1 11 14 18 19 15 11 9 8 6 4 4 4 8 7 3 1 1 3 3 4 4 5 4 1 5 4 2 4 3 3 4 5 6 5 9 7 6 6 6 4 6 7 4 4 2 2 2 6 16 21 19 16 13 13
46 48 48 48 47 48 46 46 46 45 43 41 40 38 37 36 35 35 34 33 32 30 29 26 23 19 16 14 12 8 2 4 4 3 8 15 18 20 15 11 11 12 10 4 1 2 4 4 3 2 3 2 4 5 3 4 5 4 5 2 2 5 4 3 3 5 7 3 5 6 7 6 7 5 6 7 4 6 4 4 6 10 19 21 17 14 14 15
45 48 49 48 48 48 47 46 45 45 43 41 40 39 38 37 35 34 33 32 31 31 29 27 26 22 18 16 11 4 2 4 2 2 5 11 17 20 15 11 14 17 14 10 6 2 2 4 5 5 4 3 5 5 2 2 4 6 4 0 2 4 4 3 3 3 6 4 2 5 7 5 5 2 4 8 5 8 6 6 6 11 16 14 13 13 12 14
46 47 49 49 49 49 48 46 45 44 43 41 40 39 39 38 35 33 33 31 31 31 30 28 26 22 20 14 6 3 5 9 7 2 2 7 16 22 18 14 18 21 17 15 14 9 4 3 7 5 3 4 7 6 6 3 3 6 3 2 3 3 4 2 2 2 2 3 3 4 5 4 2 1 2 8 6 8 7 8 5 7 11 10 10 11 11 11
50 46 48 49 49 50 48 46 45 44 42 41 40 39 38 38 36 33 32 30 30 31 31 29 26 23 22 13 5 3 5 12 13 4 3 6 17 22 19 19 22 23 19 17 16 9 7 8 10 4 3 4 7 5 7 6 3 3 4 5 4 3 3 0 2 3 0 1 1 3 5 4 3 0 3 5 8 10 8 8 6 6 8 9 9 9 12 13
55 50 48 50 50 49 48 46 44 43 42 41 41 39 37 37 35 33 31 29 29 30 30 29 27 26 23 14 7 5 5 12 14 10 6 8 18 22 21 23 24 25 19 16 15 8 10 18 17 7 3 2 6 6 3 5 1 5 6 6 3 3 4 1 3 3 1 1 3 3 4 4 2 1 4 3 8 10 9 8 7 6 6 8 9 9 10 12
55 54 50 49 50 49 47 45 43 41 41 41 41 39 37 36 35 33 30 28 28 28 30 29 29 28 20 9 7 8 8 10 10 10 9 11 19 22 20 22 24 25 18 15 16 13 17 23 18 7 4 2 4 4 1 2 1 6 5 4 4 3 3 3 3 4 1 1 3 2 3 0 2 6 7 5 6 7 9 8 8 7 6 7 7 7 7 10
47 53 52 49 49 48 46 45 43 41 40 40 41 39 38 36 34 33 29 26 26 28 30 30 30 26 16 5 5 9 10 8 7 7 10 14 18 18 19 21 23 22 14 13 20 20 23 22 13 5 4 3 3 3 3 5 2 6 4 3 4 2 3 5 4 4 2 1 2 1 0 4 8 12 9 7 7 6 7 8 8 7 6 7 7 7 6 9
43 47 51 50 48 47 45 44 42 40 39 39 39 39 39 36 34 33 28 25 27 29 30 30 29 21 10 3 1 8 14 10 8 8 11 17 17 14 17 20 20 20 12 10 18 23 24 20 10 4 4 3 3 3 3 3 2 4 4 3 3 2 3 5 5 6 4 1 1 2 2 4 6 10 8 8 8 9 7 8 8 7 7 6 7 7 6 8
47 46 49 50 48 47 44 43 41 39 39 38 37 38 38 36 34 31 28 26 27 31 30 26 23 14 4 3 2 7 15 13 14 14 14 17 16 10 13 17 15 15 13 8 10 14 18 15 7 3 4 2 2 2 2 2 3 4 4 3 4 4 3 2 2 6 4 0 3 2 2 3 1 3 6 6 7 8 8 7 8 8 8 8 6 7 6 7
50 48 50 50 47 47 45 42 41 39 39 38 37 38 37 35 32 29 27 26 26 30 26 19 15 8 1 3 2 4 10 13 18 16 14 17 13 8 12 15 12 11 10 9 7 9 13 11 5 3 4 1 2 3 3 3 3 4 4 3 4 5 3 2 1 3 3 3 4 3 2 2 0 3 4 3 5 6 6 7 9 8 8 8 7 7 7 7
50 47 48 51 49 46 46 43 41 41 39 38 38 38 37 34 31 28 25 26 27 25 17 12 11 3 1 5 5 5 10 15 18 16 16 16 11 10 14 12 9 11 8 7 7 7 9 7 2 2 3 3 3 4 4 4 4 4 4 3 4 7 5 3 1 2 3 3 5 4 3 3 2 5 4 4 6 6 6 7 8 8 7 7 7 7 7 7
54 51 49 50 50 48 46 44 44 42 41 40 39 38 36 34 33 30 27 28 26 17 9 7 9 2 3 9 7 7 13 17 18 17 18 15 11 13 15 8 8 12 8 4 4 4 5 4 3 3 4 4 5 5 4 3 3 3 3 2 3 6 6 5 2 4 7 4 4 6 5 8 5 5 5 6 7 7 7 7 6 7 7 7 7 7 7 8
57 57 54 51 51 50 46 46 46 45 46 43 42 41 36 30 27 26 28 26 18 9 4 8 9 2 3 12 11 9 17 21 17 16 18 15 12 13 12 9 9 10 7 3 3 4 4 3 3 4 4 6 6 7 7 4 4 5 6 5 4 4 4 3 2 3 7 4 5 7 7 10 9 6 6 7 7 8 8 7 6 6 6 6 7 7 7 8
56 56 55 53 51 50 48 48 48 50 51 46 46 38 23 17 12 11 17 16 11 6 5 12 11 2 4 12 13 13 19 21 14 12 19 19 15 12 8 7 7 5 6 6 5 5 4 4 4 6 6 7 9 8 8 6 2 3 7 8 7 5 2 1 3 1 2 3 5 7 6 8 8 7 8 8 8 8 8 8 7 7 6 6 7 7 8 8
55 54 53 53 52 51 50 50 51 53 51 50 47 22 9 15 7 7 15 10 11 7 5 19 17 4 5 12 18 22 16 14 13 12 20 22 15 11 7 6 7 4 6 8 6 3 5 5 6 8 8 7 9 10 10 6 3 4 3 6 6 4 2 2 3 2 1 1 4 7 8 9 8 8 7 8 9 9 9 9 9 9 8 6 7 8 8 7
54 53 52 53 53 52 52 52 53 54 50 48 37 8 9 16 1 9 18 6 9 11 3 21 20 4 7 13 20 22 12 9 13 11 16 20 13 9 7 7 8 6 7 7 6 3 5 6 6 9 9 3 3 9 10 6 3 3 1 3 3 2 3 3 3 2 2 1 2 3 5 8 9 8 7 7 9 9 10 11 10 10 9 8 8 8 8 7
55 54 54 54 54 55 55 54 54 52 46 42 27 6 14 18 5 23 22 6 7 9 4 19 16 6 10 10 14 14 8 9 11 10 16 17 10 7 8 9 9 8 8 9 7 5 4 6 6 7 7 3 1 4 8 4 2 2 1 1 3 3 4 1 1 2 1 1 1 4 2 6 6 6 7 8 10 8 9 12 11 10 10 10 10 9 9 10
58 58 55 55 56 54 55 55 50 46 41 39 31 15 16 20 22 35 19 5 8 4 3 18 14 8 9 7 14 13 6 8 8 10 17 16 9 7 8 10 10 8 8 11 11 8 6 4 3 5 8 7 3 2 5 5 3 3 3 2 2 4 5 2 3 4 3 1 1 3 5 5 6 7 9 9 10 10 9 11 11 10 10 10 10 10 10 11
62 60 57 57 55 55 58 50 39 39 34 31 34 22 16 27 29 26 9 4 8 1 2 14 10 7 9 9 14 11 5 7 6 10 18 16 10 8 7 7 8 8 11 13 10 8 6 3 1 6 9 8 7 4 5 6 3 3 5 5 0 2 6 7 5 5 3 2 2 2 1 6 6 10 11 8 9 11 9 10 12 10 9 8 8 8 8 8
65 60 60 58 55 60 52 30 29 39 26 21 35 24 14 29 29 17 4 4 5 4 5 10 6 9 12 10 10 7 5 5 2 13 21 17 10 6 6 6 3 6 12 11 6 3 2 0 1 7 9 8 7 5 5 6 4 3 5 4 3 5 8 9 6 4 3 2 2 3 4 5 3 5 8 7 8 10 9 9 10 9 8 8 8 8 8 8
64 61 62 59 59 62 37 16 32 36 16 21 39 26 15 24 21 10 1 2 3 6 7 5 4 11 13 9 11 8 5 4 4 10 18 13 7 1 4 8 3 5 8 6 3 1 3 3 2 5 6 6 6 4 6 7 5 3 3 1 5 8 7 8 7 3 2 1 2 1 2 2 4 5 4 5 6 6 6 7 8 8 8 9 9 10 10 9
62 62 62 60 65 60 31 26 39 22 13 32 39 26 18 17 12 4 1 3 4 5 7 4 3 10 10 9 13 6 4 10 7 5 10 10 6 1 2 9 7 6 6 7 6 2 3 5 6 8 6 4 5 3 6 9 4 3 2 1 3 5 6 6 6 3 1 3 1 4 2 1 5 5 2 4 5 5 7 9 10 11 11 10 10 10 10 9
63 63 61 63 63 46 27 36 36 13 19 39 33 22 16 11 6 1 1 4 3 4 6 5 4 8 10 10 13 7 4 8 4 2 8 8 5 1 1 7 7 5 3 4 5 1 0 5 6 8 7 5 5 1 2 7 5 4 3 4 5 4 4 4 4 4 3 1 4 6 5 2 5 5 4 3 3 6 7 8 10 10 11 10 8 8 7 6
63 62 62 65 54 33 25 31 27 18 27 36 27 20 13 7 4 3 4 5 4 4 4 6 6 9 13 13 12 11 7 3 3 5 7 6 4 2 1 2 5 6 4 5 5 1 0 1 0 3 3 3 5 3 3 2 5 6 5 5 6 4 4 3 2 4 3 2 4 5 6 5 3 4 5 4 5 7 7 7 5 4 6 6 5 6 6 5
63 61 65 62 44 31 25 20 24 28 33 35 26 18 10 3 2 5 6 4 4 4 4 7 10 12 17 16 11 13 9 5 6 10 9 7 5 4 2 3 3 5 3 4 4 2 2 2 0 1 1 1 5 4 5 3 4 5 4 5 4 3 4 3 2 3 2 3 3 3 1 2 3 5 3 2 3 5 5 5 3 5 5 5 5 5 5 4
61 61 64 55 37 30 21 18 32 36 34 38 26 12 8 4 3 5 4 5 5 5 6 11 15 15 18 16 11 12 10 6 8 11 11 9 7 7 7 6 5 4 4 3 3 2 3 2 2 2 2 2 4 4 4 4 2 2 4 6 4 1 2 1 1 2 3 3 3 2 3 1 5 6 7 8 6 5 5 5 6 7 6 6 6 5 5 4
58 61 57 44 33 26 21 28 40 36 32 35 21 6 6 7 7 8 6 6 6 8 10 12 16 17 16 14 11 12 10 7 10 11 10 10 7 8 8 8 9 7 5 5 4 3 2 0 2 2 1 2 3 4 4 1 2 3 5 5 5 4 2 3 3 2 3 2 3 3 1 2 4 5 10 14 12 7 4 3 5 7 6 7 7 6 6 6
58 59 47 36 30 22 25 38 40 36 33 25 12 6 9 9 9 10 8 5 4 10 13 12 16 17 15 12 10 12 9 6 11 11 10 10 7 9 10 10 12 8 4 7 5 6 5 2 2 3 2 3 4 3 4 6 4 4 4 5 5 5 3 4 4 3 4 1 2 3 1 3 3 3 7 9 7 4 2 2 3 3 3 5 5 5 5 6
56 52 38 30 28 20 27 40 39 36 29 14 8 8 10 10 9 10 9 5 5 10 13 15 17 15 13 9 9 13 8 5 10 10 8 11 10 10 10 10 14 10 6 7 4 5 8 3 1 1 2 3 4 2 1 6 4 3 2 4 3 4 4 3 2 3 4 2 0 2 2 4 4 5 7 5 4 4 3 3 3 4 4 5 4 5 5 6
50 40 31 27 25 20 27 38 40 34 21 10 9 8 8 9 8 8 8 7 8 12 16 15 13 12 11 7 8 14 8 5 11 9 6 10 9 10 11 9 13 13 9 7 3 4 7 2 2 1 2 1 1 1 1 3 3 2 2 4 3 2 6 4 0 0 3 0 2 3 3 5 3 6 10 8 7 5 4 5 5 6 6 6 6 6 6 6
41 29 23 23 24 24 29 39 42 31 14 8 11 9 9 8 5 6 7 8 10 14 16 13 9 11 12 9 10 15 11 7 11 9 7 9 8 11 13 9 12 15 10 6 3 3 6 2 2 1 1 1 1 1 2 2 2 4 3 5 3 2 3 3 1 1 2 2 2 4 5 4 2 4 5 4 7 6 6 7 7 6 6 7 7 6 7 6
32 23 14 17 24 25 31 41 38 21 7 7 12 11 9 6 4 6 9 12 14 15 13 10 8 10 12 11 10 14 13 9 10 9 7 8 6 9 15 9 10 15 10 4 3 3 6 4 2 3 1 1 1 1 2 2 2 3 3 2 3 1 1 1 2 2 2 3 3 3 6 4 4 4 3 2 7 8 7 7 7 7 7 7 6 6 6 6
23 15 7 16 24 23 32 39 27 11 5 8 12 10 8 5 4 8 12 14 14 14 12 8 7 8 10 11 10 13 14 11 10 8 6 7 4 8 15 9 7 15 11 4 3 3 4 4 1 3 2 1 1 1 4 2 2 1 2 2 2 2 3 3 3 3 3 3 4 3 3 4 5 6 5 7 8 8 7 7 7 8 8 7 6 6 6 6
13 7 7 21 27 25 34 30 14 7 7 10 11 8 8 5 3 9 15 16 11 7 8 9 9 10 10 11 11 11 11 10 11 8 5 7 5 6 12 9 8 14 9 5 3 1 3 3 3 0 2 1 1 2 5 6 4 2 2 4 2 1 2 1 2 2 3 3 3 3 3 5 5 5 9 10 8 7 6 4 5 6 6 7 6 7 6 7
9 5 8 24 31 31 30 17 8 9 9 11 11 7 7 5 4 9 13 15 9 0 3 9 11 10 10 11 12 10 8 8 10 8 5 8 8 4 5 7 10 12 8 5 2 2 1 3 5 3 1 2 1 2 1 2 5 5 5 7 7 5 4 3 3 3 3 2 3 3 4 6 5 2 5 7 6 5 5 5 4 3 3 4 5 7 7 7
7 4 11 30 38 34 23 9 8 10 8 9 6 3 6 6 7 9 9 11 7 1 1 7 9 9 8 9 11 11 10 8 9 9 7 8 9 5 4 7 11 12 9 5 2 1 2 5 5 3 2 2 2 2 1 2 1 1 3 5 6 6 5 5 5 4 3 2 1 2 3 6 5 2 1 2 3 3 1 2 3 3 1 3 3 5 6 6
5 5 15 34 42 31 15 8 9 7 5 5 4 3 4 6 7 8 7 8 6 2 2 5 9 10 7 8 10 12 12 9 10 11 8 7 7 5 6 11 13 13 9 5 4 2 3 5 4 3 2 1 3 2 2 2 1 1 4 4 5 7 6 5 4 4 4 3 2 2 4 6 6 4 0 1 1 0 3 2 4 5 3 2 3 4 5 5
4 6 10 26 36 25 10 10 13 10 8 8 6 3 1 3 7 9 9 9 6 4 4 5 8 8 6 7 9 12 13 8 8 10 7 7 5 2 5 14 15 12 9 6 7 5 3 3 5 5 3 2 3 1 2 4 4 3 3 3 3 4 6 4 1 2 2 5 6 5 5 7 5 2 2 3 4 4 6 5 5 5 4 3 4 4 5 4
6 5 4 12 21 14 4 5 9 10 10 9 8 7 3 2 2 3 9 9 4 4 5 3 7 8 6 7 6 8 12 7 5 6 4 6 3 4 3 14 15 10 7 8 10 7 5 5 5 6 6 6 6 7 5 4 4 0 1 5 6 6 9 6 2 2 2 5 6 5 6 9 5 2 2 4 4 5 7 6 6 6 6 5 5 5 6 5
7 5 5 7 7 6 3 2 2 7 10 10 8 8 8 6 1 3 4 6 2 4 6 4 6 8 7 9 8 8 12 7 4 5 5 5 2 3 0 8 10 6 6 11 13 8 4 4 7 9 10 11 11 7 4 8 7 6 8 10 11 10 10 8 4 4 5 4 4 5 8 12 11 3 3 5 6 7 7 6 6 6 6 6 5 5 5 5
3 6 10 9 6 6 5 4 4 7 12 13 9 8 11 10 5 0 2 0 3 5 5 4 7 9 9 12 10 8 12 10 5 7 8 5 3 2 3 2 4 4 6 11 12 7 4 5 9 12 13 12 6 3 9 11 10 13 13 11 11 10 9 8 6 7 6 3 5 9 9 14 17 9 7 8 8 7 8 7 8 7 6 6 5 5 6 6
1 5 7 6 6 10 9 8 11 13 16 16 10 9 14 12 10 7 1 1 3 6 5 3 8 12 14 14 10 7 9 9 5 7 9 6 4 4 4 5 5 3 2 7 6 4 4 6 8 10 12 10 3 4 10 11 9 11 13 12 13 12 11 11 12 12 9 7 10 13 13 17 18 11 9 9 8 8 9 8 6 5 6 6 6 6 6 6
1 2 2 1 1 9 9 7 10 13 15 16 10 10 17 16 15 12 5 3 5 6 6 7 9 12 13 12 10 8 10 10 8 8 7 6 6 5 3 2 3 4 3 5 3 1 3 4 5 6 8 9 5 5 8 10 8 9 12 14 14 14 15 16 16 17 17 14 15 17 16 18 17 12 10 9 9 8 6 4 5 6 7 7 7 7 7 7
1 2 1 1 1 6 9 7 9 9 10 13 11 9 14 17 18 13 7 9 11 9 9 11 12 12 12 12 10 9 12 13 11 9 8 9 7 5 3 3 3 2 3 4 2 2 1 3 3 5 4 5 4 6 8 8 8 8 10 11 13 14 15 17 17 17 16 15 17 17 14 16 16 11 8 7 7 6 4 6 7 7 7 8 7 7 8 8
1 3 0 2 3 6 10 9 9 9 8 11 11 9 12 16 18 13 7 9 13 12 12 13 12 10 9 12 13 12 12 10 10 12 14 13 11 8 5 5 8 6 2 3 4 1 2 2 1 5 4 4 6 8 6 5 4 3 7 10 14 15 15 16 16 14 13 13 15 13 11 16 15 7 6 8 7 7 7 8 8 6 7 8 8 8 8 8
2 3 2 1 2 4 9 9 9 10 9 11 13 12 11 13 15 13 7 5 6 9 11 12 12 10 8 13 15 11 8 7 8 11 12 10 10 9 6 8 14 13 8 6 4 3 6 5 2 5 5 5 7 10 7 7 4 4 9 14 17 17 16 15 13 13 13 12 10 10 14 17 10 3 6 10 6 7 9 8 7 7 8 8 8 8 7 8
Wind_Direction
203 202 203 203 203 203 203 202 199 197 195 194 195 194 194 195 197 197 194 193 195 192 188 187 186 182 175 177 184 195 213 227 256 252 229 233 230 229 231 210 202 307 294 321 1 352 336 78 299 259 221 192 212 183 167 164 142 135 168 220 243 232 223 229 209 166 128 138 154 166 166 143 143 147 118 171 140 110 141 127 85 71 73 75 102 121 131 141
203 202 203 202 202 203 203 202 201 198 196 195 195 196 196 197 198 199 198 198 198 193 187 187 191 187 183 191 195 197 206 223 268 262 236 233 231 223 221 207 202 250 300 312 349 348 331 334 309 256 230 231 203 166 167 167 160 181 213 212 229 243 244 1 37 96 121 148 157 162 176 161 145 154 142 163 166 137 150 159 129 100 91 89 114 126 134 145
202 202 201 202 202 203 203 203 202 199 197 196 195 196 198 199 200 201 200 199 200 197 192 194 195 186 190 199 200 201 186 330 290 260 242 230 217 212 212 196 193 234 286 289 320 330 323 320 316 296 251 249 220 171 183 161 165 206 223 228 233 246 281 47 57 44 79 136 148 159 179 173 146 146 145 176 174 162 183 177 158 149 144 146 136 136 143 152
201 201 200 201 202 202 203 203 202 199 196 195 194 194 197 198 200 201 200 200 202 202 202 205 200 188 191 191 191 190 104 21 286 247 243 227 203 199 203 186 168 229 268 240 270 312 324 313 303 295 273 269 234 178 186 160 165 203 202 232 263 273 352 60 64 43 51 127 143 150 158 153 136 133 147 178 177 177 201 189 180 178 155 155 157 148 153 160
202 200 200 200 201 202 203 203 200 198 196 194 193 193 194 195 197 199 199 200 201 200 203 206 203 198 200 190 183 162 104 38 291 236 230 214 196 190 186 179 162 212 261 238 251 304 323 303 284 295 291 270 234 177 192 185 181 234 233 239 345 353 26 48 45 27 15 120 128 136 154 138 120 129 166 186 192 181 203 188 184 181 156 154 161 158 160 168
207 199 200 200 201 202 201 202 200 197 196 194 192 191 191 191 193 196 197 198 196 194 194 197 197 194 194 188 173 151 133 213 337 265 203 184 186 184 175 182 180 206 238 249 256 317 329 302 276 276 228 273 261 218 212 190 176 225 249 235 52 37 41 14 23 358 345 121 136 152 151 123 127 156 185 197 189 142 72 43 143 154 152 152 154 157 164 174
211 198 199 200 200 201 200 201 200 197 196 193 191 190 188 189 190 193 194 195 195 193 191 193 192 186 180 168 153 140 157 259 331 316 187 168 179 180 175 188 187 197 214 217 246 339 333 310 290 263 224 259 267 240 223 168 166 217 248 224 74 66 72 13 14 346 349 75 145 152 136 136 165 175 182 198 158 123 97 50 48 97 132 143 147 159 168 177
215 200 198 200 199 200 200 200 198 197 195 193 191 188 187 186 187 188 189 190 191 191 192 192 189 185 179 158 138 128 248 248 278 302 180 173 181 181 182 195 192 190 193 191 182 169 335 315 280 264 249 232 243 237 202 139 175 216 253 73 84 77 89 61 48 5 7 14 21 119 134 139 163 141 165 199 159 127 117 81 72 102 123 139 149 161 168 175
218 204 197 199 199 199 199 199 197 195 193 192 188 185 185 185 184 185 185 185 186 187 188 188 183 182 179 159 133 171 213 213 195 138 194 202 190 186 192 201 193 186 188 193 188 172 145 287 276 274 289 266 260 240 178 184 218 206 215 85 103 93 96 96 87 58 26 346 5 114 137 92 86 84 190 211 169 131 121 99 106 127 133 146 154 164 167 172
218 209 198 198 199 197 198 197 196 194 191 189 185 182 183 183 182 181 181 181 183 185 185 185 180 175 171 156 143 192 216 207 201 214 269 216 194 191 199 204 192 184 188 184 183 171 146 217 263 304 324 294 292 276 175 190 247 175 149 88 91 95 95 2 83 102 73 9 275 185 141 79 43 275 234 209 156 134 124 118 134 149 153 159 158 168 171 174
212 210 200 197 197 196 195 194 194 191 187 185 181 180 182 180 178 177 176 175 178 182 183 183 181 174 167 161 174 195 191 191 202 227 247 211 193 192 198 203 192 186 188 169 175 181 165 213 252 293 291 292 313 298 182 187 183 123 128 99 97 108 102 113 105 125 249 111 220 234 103 83 61 230 241 176 144 146 140 140 155 163 168 168 163 166 172 179
205 203 197 195 196 195 193 192 191 186 182 182 180 180 180 177 175 173 171 171 173 177 179 180 179 173 163 171 203 189 175 175 187 210 225 201 185 189 196 200 191 188 189 156 161 180 184 215 247 273 267 313 316 279 264 288 180 140 153 132 140 149 130 171 135 131 202 131 225 269 55 121 189 223 226 151 139 151 151 159 167 174 174 169 168 164 171 181
202 196 193 194 193 192 191 189 188 183 179 180 179 178 178 174 171 169 167 169 170 170 171 170 169 166 160 187 221 192 192 191 184 197 209 189 178 190 195 190 183 185 192 156 159 184 198 215 237 263 283 304 294 270 298 300 207 158 194 180 144 171 186 175 134 119 144 317 312 26 178 227 213 220 208 151 154 151 165 180 170 182 183 172 171 163 175 184
204 196 190 191 192 189 188 186 184 180 177 177 175 174 174 170 167 166 163 163 166 165 161 162 165 164 167 215 293 203 208 214 227 222 205 188 176 183 180 173 176 183 190 153 159 185 202 213 228 279 287 256 263 295 314 291 216 171 197 216 162 163 184 159 140 146 155 296 329 91 224 248 225 208 175 150 163 157 180 194 174 181 184 182 175 166 180 187
203 200 190 188 189 186 185 182 178 175 174 173 171 170 168 166 164 164 162 158 163 165 157 158 164 158 167 270 327 208 213 227 235 227 214 198 180 169 166 166 171 181 191 175 156 173 190 198 202 262 266 260 280 287 291 241 234 208 185 205 189 168 162 142 156 164 153 238 190 159 231 264 316 149 136 145 166 166 186 194 184 185 179 182 179 175 183 185
197 197 191 187 186 184 182 178 174 171 170 169 168 166 162 161 159 158 160 156 156 159 153 151 159 150 194 225 159 191 214 220 218 217 216 203 186 162 152 155 155 163 184 189 174 161 169 178 168 222 240 236 232 233 240 212 218 231 195 177 186 181 167 156 245 198 142 124 182 231 252 234 227 144 136 154 176 184 199 196 188 189 185 181 175 180 187 182
195 194 189 185 185 182 178 176 172 168 168 166 161 157 154 154 152 150 154 152 148 146 142 147 151 123 355 140 132 191 204 205 208 209 201 193 189 170 149 139 140 144 143 154 165 160 163 175 161 192 210 195 208 217 224 209 202 225 202 188 196 185 169 154 190 209 168 165 195 208 240 260 217 160 167 193 189 191 213 213 193 185 186 184 174 178 186 187
195 196 191 184 183 181 177 174 169 166 165 160 152 147 145 145 143 139 139 139 135 124 114 147 149 141 211 164 166 204 192 192 198 193 184 181 179 171 160 149 140 138 125 116 150 163 167 176 171 185 193 190 203 205 213 207 178 181 181 215 218 187 183 171 161 176 169 194 216 181 221 259 239 168 185 207 192 188 211 224 211 192 185 185 181 181 187 191
192 192 189 183 180 179 176 171 167 163 157 148 142 138 134 131 131 133 137 139 138 132 145 176 176 190 179 172 183 194 181 179 180 174 172 172 169 170 166 156 147 143 138 136 178 188 171 142 172 204 198 192 205 207 216 211 176 186 182 201 222 180 186 165 120 164 159 171 218 191 211 241 236 211 196 200 197 192 204 219 224 210 199 195 189 190 193 195
186 184 180 178 177 175 172 167 164 158 151 141 135 133 130 131 126 136 155 164 178 186 144 164 188 251 99 155 159 146 160 169 168 168 172 169 161 167 168 153 157 166 157 153 172 186 168 163 191 208 201 195 202 211 228 235 251 227 184 190 215 182 163 67 95 151 165 157 215 218 229 240 239 232 202 184 191 199 198 203 213 211 208 207 199 200 199 202
178 177 175 174 173 172 168 164 159 156 153 145 141 141 155 157 151 170 172 184 207 224 122 157 186 228 117 148 145 135 140 166 175 170 169 167 158 159 169 164 163 185 179 153 141 147 174 199 199 201 213 207 195 204 228 247 316 320 183 170 205 187 138 29 83 162 183 129 216 221 235 247 243 243 223 174 176 202 200 193 200 205 207 209 206 208 208 208
174 175 173 171 169 167 164 160 158 156 153 152 153 168 184 170 176 156 157 145 204 238 184 163 188 205 125 146 151 149 143 163 176 166 162 165 165 168 171 176 171 175 180 151 125 144 186 213 206 198 216 248 200 198 210 238 284 318 343 136 184 179 119 55 48 133 142 129 254 218 225 251 250 246 242 196 189 202 196 194 198 199 203 207 204 206 209 208
174 172 170 168 164 161 160 159 157 156 156 160 167 190 183 184 149 143 147 82 163 223 204 169 189 169 134 150 163 168 158 157 168 165 166 167 171 182 171 176 182 172 175 165 155 170 185 207 211 197 197 201 277 192 183 210 269 241 262 149 180 167 144 168 218 143 105 151 30 5 306 267 266 263 252 228 222 215 195 200 202 196 202 204 201 201 200 199
172 169 168 164 160 159 159 157 156 158 163 167 169 176 178 171 150 148 146 56 143 201 188 173 187 168 145 153 170 179 173 163 166 161 171 172 166 180 179 179 182 172 178 181 171 175 183 190 198 179 180 182 178 184 170 178 239 235 224 232 216 172 151 120 150 135 20 13 89 7 323 281 236 233 244 231 226 225 208 204 208 208 206 201 203 205 199 196
169 168 165 161 159 158 156 154 156 162 166 168 171 178 166 159 164 166 149 71 150 187 184 173 190 186 152 145 167 175 167 172 173 160 171 179 171 169 183 187 188 180 180 186 179 178 191 196 152 169 180 184 175 189 189 174 208 247 221 210 247 126 128 111 130 130 59 308 236 130 302 284 226 211 230 220 211 220 209 203 211 214 205 197 206 212 208 204
165 165 163 161 159 156 153 154 164 164 164 176 179 179 168 167 181 198 175 86 160 169 166 166 175 180 160 148 161 157 169 198 165 155 166 182 190 181 187 182 189 191 178 181 191 177 173 47 120 167 174 177 178 200 199 173 179 231 241 209 124 95 115 126 148 144 126 228 281 124 176 268 279 242 239 205 194 214 207 206 216 213 207 205 211 216 212 209
162 163 162 160 159 158 157 158 162 163 170 182 178 181 198 188 194 222 170 96 188 160 153 164 176 177 165 159 165 154 165 162 90 155 168 179 190 181 191 177 166 197 172 158 199 186 115 109 126 150 149 161 173 203 194 169 170 212 283 295 131 125 132 143 154 164 162 143 359 343 185 269 292 282 260 151 163 213 216 221 231 225 218 216 215 217 215 210
161 161 161 161 162 164 163 153 157 167 182 173 175 187 203 197 201 241 123 147 179 139 144 161 159 166 157 157 175 172 123 139 134 171 172 171 177 71 184 186 177 181 164 154 187 230 115 157 169 155 145 169 180 199 184 165 170 220 249 4 113 134 142 147 148 154 94 74 306 251 191 276 268 253 225 134 156 219 226 221 227 226 219 218 216 211 208 206
161 160 161 161 163 166 160 154 158 161 163 166 176 189 186 181 190 259 178 177 153 123 141 145 143 161 155 159 181 186 124 145 160 142 149 162 191 266 196 193 173 142 91 125 164 264 246 183 175 157 159 175 162 58 209 173 177 203 174 78 58 71 96 124 140 125 87 77 237 224 185 203 276 252 209 181 196 223 229 224 225 220 211 207 202 190 179 175
160 160 161 161 163 164 151 154 161 148 153 166 175 176 161 156 174 153 188 192 140 142 147 146 164 164 159 163 179 184 163 134 119 124 146 164 187 232 307 209 158 122 73 60 92 89 264 180 120 141 168 166 130 77 2 152 143 141 129 84 63 49 54 61 104 103 97 248 236 219 190 185 271 260 197 187 215 214 219 233 229 188 171 168 154 146 149 150
160 160 162 163 165 161 146 151 163 152 157 168 165 157 148 135 202 173 174 168 117 143 154 149 158 160 168 171 171 180 170 116 134 151 159 169 176 192 196 182 137 111 120 78 73 87 68 72 86 41 279 175 117 80 13 26 111 114 119 112 87 37 41 30 13 94 156 244 248 291 307 168 228 252 222 219 229 206 207 222 199 151 142 135 129 132 137 141
161 162 163 164 163 158 151 152 159 156 161 166 157 150 160 141 206 198 156 150 152 172 178 164 161 166 175 172 163 172 161 126 160 167 163 169 178 185 190 184 154 134 165 143 114 130 78 89 139 40 310 226 133 105 38 4 5 98 137 131 120 94 80 102 246 175 208 244 247 299 353 248 232 248 261 268 257 220 211 204 171 159 157 152 155 156 151 150
161 162 162 164 160 155 152 150 156 157 156 159 156 163 172 154 191 196 159 164 173 162 165 166 164 164 169 170 164 166 155 143 169 171 165 168 171 187 206 200 178 174 172 148 138 145 104 26 164 108 337 249 166 146 131 169 250 183 160 143 147 149 133 191 199 194 218 260 286 283 310 265 269 259 245 250 249 233 209 190 153 145 159 166 163 161 162 170
161 161 160 161 157 148 151 155 160 159 153 156 165 172 169 172 193 190 173 179 162 150 155 156 155 157 169 175 163 164 161 150 166 166 162 166 174 191 206 204 190 184 148 145 162 169 169 209 193 162 176 173 179 185 148 148 165 191 169 140 161 171 161 184 181 186 199 207 320 302 258 192 208 248 238 236 240 221 156 155 135 130 161 153 146 156 174 190
159 159 156 154 153 146 155 162 164 161 156 160 173 171 176 181 185 185 178 164 148 152 150 149 150 156 174 175 156 168 174 152 166 168 166 178 188 188 193 198 192 184 156 157 177 173 174 204 263 235 252 170 169 234 122 122 145 220 155 118 178 196 147 138 167 174 155 104 280 240 246 212 205 271 274 244 208 200 215 220 193 214 211 168 177 199 200 209
155 154 154 153 156 155 161 166 167 166 167 167 164 178 198 192 182 180 170 149 153 152 143 147 155 157 170 171 159 174 178 155 166 172 181 192 201 195 192 196 190 190 181 161 154 159 167 210 324 308 316 60 139 271 8 112 158 181 131 157 202 168 116 114 232 76 101 141 229 185 252 279 282 290 277 247 226 217 225 243 238 235 221 195 208 214 205 206
151 151 154 160 163 163 165 167 167 171 182 178 170 186 200 198 180 159 144 130 140 145 143 151 167 166 170 173 173 175 166 152 170 177 179 185 204 201 195 197 191 194 195 159 158 187 152 115 338 2 30 337 311 40 43 40 127 118 149 191 177 72 79 116 178 18 79 225 242 176 214 260 247 271 290 245 231 231 218 227 240 237 224 215 220 218 208 196
149 147 148 162 165 163 163 165 167 174 196 188 187 196 194 190 168 147 137 130 137 149 153 157 167 177 179 173 173 172 162 162 179 181 172 178 205 195 188 196 190 194 199 138 138 183 130 108 338 357 25 271 317 110 117 13 39 124 164 173 112 134 233 134 177 191 161 217 268 224 218 231 201 222 296 238 225 238 225 211 216 222 219 219 223 217 200 172
142 143 149 164 163 161 161 162 167 180 193 188 195 200 186 175 167 154 144 138 145 156 162 163 161 174 184 172 161 165 170 174 173 174 179 184 208 192 184 187 182 191 196 132 140 183 116 124 199 342 338 204 354 222 177 169 0 52 93 77 74 166 179 165 192 192 156 196 258 251 228 243 222 210 225 225 219 224 223 208 208 218 217 216 211 200 187 170
142 142 159 164 162 161 159 158 167 191 192 194 196 186 169 164 160 156 148 144 150 164 167 166 163 167 173 166 157 164 176 175 168 179 198 177 183 202 190 182 172 181 174 94 101 168 73 103 149 63 337 160 176 236 189 171 170 152 124 141 158 163 124 130 239 195 143 170 231 245 250 258 248 210 206 220 222 210 196 171 191 213 214 215 204 186 183 180
156 141 148 162 162 158 154 155 181 191 196 200 194 179 159 145 133 157 156 148 145 234 177 163 165 167 161 159 163 167 170 173 174 184 196 178 179 213 211 179 160 165 154 103 109 171 81 90 123 138 177 180 208 331 13 182 181 174 174 176 180 172 137 141 236 208 159 175 196 209 255 263 256 220 193 209 207 186 163 144 174 216 208 202 195 184 187 185
159 148 146 159 163 160 157 168 189 189 201 194 183 156 141 139 144 160 161 150 144 16 167 160 163 163 160 161 165 163 164 175 180 182 198 194 181 191 207 164 146 153 158 145 155 174 89 93 106 124 164 191 277 328 346 290 238 176 219 195 176 176 162 168 201 199 184 213 139 151 264 269 261 262 141 167 155 135 103 134 186 238 219 165 167 167 176 182
153 121 134 155 164 166 163 172 182 197 215 171 126 73 128 147 152 155 156 153 153 147 138 154 161 163 167 162 158 162 166 174 185 186 191 186 176 188 183 155 143 152 158 150 164 152 89 101 107 83 56 335 302 288 306 300 236 218 245 215 177 191 187 170 180 166 165 191 152 167 252 262 265 267 2 358 322 263 304 272 214 254 281 184 164 148 153 166
131 97 115 155 169 178 178 177 181 191 193 171 150 125 110 162 152 156 166 162 158 155 140 144 158 161 162 151 151 166 171 174 190 190 179 169 190 272 168 154 150 158 172 175 173 171 152 141 122 109 108 9 349 309 278 249 211 206 222 185 163 169 149 128 115 111 154 208 176 172 245 253 263 322 4 319 304 286 277 251 211 238 258 220 196 175 159 147
127 92 66 154 175 192 208 192 188 182 175 172 166 157 146 130 118 156 167 159 148 149 140 126 142 139 135 135 128 159 178 181 173 178 169 154 184 322 161 160 161 169 182 166 154 158 170 165 149 152 168 180 193 205 212 197 179 174 144 164 171 164 153 161 176 131 207 228 179 171 244 253 253 32 5 274 265 267 264 237 205 219 228 218 203 187 179 161
137 124 111 141 187 232 275 315 225 178 171 172 174 168 160 147 52 345 151 156 179 152 135 115 126 123 132 146 136 159 189 193 136 154 168 141 130 327 273 161 160 155 145 146 148 145 146 178 186 190 197 200 204 202 133 113 138 192 201 184 185 187 175 168 155 170 203 214 195 213 242 257 258 219 191 239 231 237 247 224 209 220 223 222 201 174 171 171
119 149 155 151 172 211 235 269 229 190 179 179 177 173 168 156 145 78 30 103 199 151 124 121 142 145 155 161 156 167 186 184 145 153 164 136 91 26 9 50 99 97 119 146 154 136 127 199 201 202 218 222 213 148 128 136 168 195 197 188 188 191 176 165 181 203 197 181 236 238 232 251 257 233 203 224 222 231 243 227 219 215 206 206 179 139 140 164
79 157 169 158 166 191 204 206 201 194 183 182 178 165 169 163 157 169 122 13 182 155 124 140 172 171 168 164 162 161 170 172 168 170 163 140 117 102 34 21 44 26 65 146 158 125 137 205 205 200 226 236 220 139 152 165 185 192 191 190 189 187 179 182 201 207 193 192 233 235 226 240 253 243 222 217 205 219 231 220 205 180 166 166 155 150 158 173
38 106 156 26 179 192 186 164 180 190 182 182 184 171 174 175 172 173 148 115 183 185 163 170 185 182 172 167 164 158 165 175 185 185 156 126 135 132 88 50 54 5 25 121 154 37 136 202 196 177 224 247 231 189 180 179 187 193 196 195 190 188 189 195 206 210 204 207 224 231 234 245 251 244 232 217 204 215 214 165 153 157 158 154 156 173 188 194
35 59 145 94 70 179 174 146 161 185 183 183 191 186 182 183 180 174 158 161 175 184 188 185 183 179 175 175 177 179 186 184 176 168 139 124 144 152 128 144 137 34 30 107 116 347 156 202 169 146 204 250 211 191 192 178 179 197 203 199 192 192 199 207 212 214 210 214 226 234 244 254 252 239 232 225 207 196 156 157 189 190 167 158 165 185 199 204
336 332 214 147 95 156 172 167 171 181 180 186 195 190 188 191 184 171 172 188 180 176 187 183 171 170 173 182 193 198 194 180 157 157 155 149 163 174 160 154 146 137 143 147 139 135 166 201 104 126 177 237 194 180 172 123 114 200 212 202 197 195 202 211 214 215 208 211 228 236 241 250 248 226 234 243 205 180 186 194 207 204 172 167 179 195 206 212
347 332 336 109 85 148 171 168 176 189 188 191 194 188 188 191 180 167 170 203 193 181 181 169 157 162 179 195 205 201 173 150 143 157 160 149 154 161 153 153 153 154 164 165 158 163 161 165 161 148 178 235 202 171 147 100 86 243 224 205 200 201 205 211 217 222 213 205 215 222 231 244 244 177 239 252 204 187 211 204 201 209 195 185 186 191 205 219
Height
716 719 723 726 729 732 735 738 739 741 743 746 749 753 756 759 761 764 767 768 771 773 776 780 782 784 785 787 789 791 793 794 795 796 797 797 797 797 797 798 799 801 801 801 802 802 802 802 802 801 801 801 801 801 801 801 801 807 814 821 821 816 809 802 798 798 802 807 807 805 803 807 813 812 809 810 812 815 817 818 819 821 822 824 825 825 827 830
712 715 719 723 726 729 733 735 738 739 742 745 747 751 754 757 760 763 766 768 771 773 776 779 781 784 785 787 789 790 793 793 795 795 794 795 796 797 797 797 799 800 801 802 802 803 804 803 801 801 802 803 802 801 803 801 803 810 813 819 818 809 801 794 792 793 795 802 805 804 802 803 809 810 809 814 817 817 820 821 820 825 827 826 826 827 830 831
709 713 716 720 723 727 730 733 736 739 741 743 746 749 753 756 759 762 765 768 769 772 775 778 780 783 785 786 788 790 792 794 795 793 791 793 795 797 798 797 798 800 801 802 802 804 805 802 802 802 803 805 802 802 804 803 804 807 811 818 812 801 796 792 791 792 792 796 802 804 801 802 805 806 809 814 817 818 821 820 820 825 828 828 827 828 830 831
706 710 713 717 721 724 728 731 734 737 739 742 744 747 751 755 758 761 764 766 768 771 774 777 780 782 784 785 788 790 791 795 794 788 787 790 793 796 797 797 798 800 801 803 803 803 803 802 802 802 804 806 802 801 804 804 804 805 808 813 805 797 798 794 792 792 791 793 799 802 802 804 803 804 809 812 817 820 817 815 816 819 822 826 827 827 830 831
703 706 711 714 718 722 725 729 731 735 738 741 743 746 749 753 757 760 763 765 767 769 772 777 780 782 784 785 788 789 793 800 793 784 786 788 791 794 796 797 798 800 802 804 805 804 803 802 802 803 806 807 803 802 804 800 800 804 804 803 799 797 800 797 793 794 792 792 797 802 804 804 802 805 808 810 816 818 812 809 808 810 815 820 824 826 828 830
700 702 708 711 715 719 723 726 729 733 737 739 742 745 748 752 755 759 762 764 766 768 772 776 779 781 783 785 788 789 794 798 788 784 785 786 790 793 795 798 799 801 802 804 805 805 805 803 804 807 808 808 806 804 802 797 798 806 803 797 798 797 800 799 796 797 794 794 800 802 802 801 805 809 807 808 811 810 807 806 804 804 808 814 819 824 827 828
698 699 704 709 713 717 720 724 727 730 734 738 741 743 747 751 754 758 761 764 766 767 771 774 778 781 782 785 788 791 793 790 783 784 785 785 790 793 796 798 799 801 802 803 804 805 808 807 807 808 808 809 807 802 800 797 797 805 803 797 799 798 800 802 799 799 796 797 799 798 800 803 807 809 806 807 808 806 806 804 803 803 806 812 817 821 824 825
697 698 701 706 710 714 718 722 725 729 732 736 739 742 746 749 753 757 760 763 765 767 770 772 776 780 782 785 788 794 794 787 783 785 784 786 790 792 796 797 798 801 801 803 804 806 810 810 809 807 808 807 803 801 799 799 801 803 803 798 799 800 801 802 801 800 799 799 798 797 801 804 806 806 806 807 805 805 805 805 805 805 808 813 816 819 821 823
695 696 699 704 708 711 715 719 723 727 730 734 738 741 744 748 752 756 759 762 764 766 768 772 776 779 783 784 787 793 790 783 783 785 785 787 789 792 795 795 798 800 801 804 805 808 812 812 809 806 808 806 800 799 797 803 805 800 800 799 800 802 801 802 801 801 802 801 800 801 805 805 805 806 807 804 802 804 804 805 807 807 810 813 815 818 819 822
692 694 697 701 705 709 712 716 721 725 729 733 736 740 743 747 750 755 758 761 764 766 769 772 776 779 783 784 789 792 783 781 784 784 786 787 789 792 793 794 796 798 801 803 804 807 809 810 808 804 806 805 801 799 796 801 801 795 798 800 801 803 801 802 802 802 802 802 802 804 807 807 806 808 809 801 799 802 803 807 808 808 811 812 814 816 817 820
688 693 696 699 703 707 710 714 719 723 727 731 734 738 743 746 750 754 758 761 764 766 769 772 775 779 781 783 787 787 780 781 784 785 787 788 789 791 792 793 795 797 799 800 802 804 806 808 806 806 807 805 802 799 795 795 794 794 798 801 803 803 802 802 802 804 804 804 803 803 807 808 808 810 807 800 798 800 803 807 808 809 810 810 812 814 815 817
684 689 693 698 701 705 708 712 717 722 726 730 733 737 742 745 748 753 757 761 764 766 768 771 775 778 780 782 781 779 777 781 784 785 787 787 789 790 790 792 793 796 797 796 800 804 806 807 807 809 807 803 804 802 798 793 792 795 797 802 806 803 804 804 802 804 805 806 802 802 811 814 812 809 801 799 799 799 802 806 808 809 809 810 811 812 814 815
680 684 689 695 699 703 707 710 715 720 724 729 732 735 741 744 747 752 757 760 763 766 768 771 775 776 780 781 776 775 778 780 783 785 786 786 788 789 790 792 793 795 796 795 798 803 807 807 807 808 804 804 806 802 799 794 793 797 797 801 808 809 808 803 802 805 805 807 802 805 818 815 807 803 797 798 799 800 804 805 806 808 807 809 810 811 813 813
678 682 685 691 697 700 705 708 713 719 723 728 731 734 739 743 747 751 755 760 763 766 769 772 775 776 778 777 773 775 778 780 781 782 784 786 787 789 789 790 792 794 795 795 798 802 805 806 806 806 804 804 804 800 799 798 796 798 800 801 806 814 813 802 801 805 806 808 803 808 820 811 800 798 797 798 798 801 804 804 804 806 806 807 808 810 812 812
675 682 684 688 694 699 703 707 712 717 722 726 730 734 738 743 747 750 755 760 763 766 769 772 774 776 779 777 772 775 778 779 779 778 781 784 785 786 786 787 790 792 794 796 797 799 802 804 806 809 807 803 802 804 805 804 800 798 806 811 806 810 814 806 802 803 805 808 805 810 818 809 801 800 798 797 798 800 803 803 803 803 804 806 806 808 810 810
672 679 682 686 693 697 701 706 710 716 721 725 729 733 738 743 746 751 756 759 764 767 769 773 774 775 780 777 773 776 777 776 775 777 779 781 781 782 784 786 789 791 793 795 796 798 800 802 806 808 807 805 805 808 810 811 808 801 804 813 808 808 814 812 806 802 803 807 808 812 815 808 803 802 799 798 799 800 801 801 801 802 802 803 805 806 808 809
668 676 680 685 692 695 699 704 709 714 720 724 728 732 738 743 746 751 757 760 765 768 770 772 773 775 778 775 775 774 772 772 774 776 778 779 780 781 783 786 788 791 792 794 796 797 799 802 805 806 805 806 806 808 816 821 818 808 802 807 805 803 809 813 810 805 803 807 809 812 814 808 802 802 801 800 799 800 801 800 799 799 800 800 802 804 805 807
664 672 679 683 689 693 697 702 707 712 718 723 726 732 737 743 748 751 757 761 765 771 774 774 774 777 776 771 771 769 766 771 773 774 776 777 780 780 782 785 787 790 792 795 797 797 800 801 803 807 806 807 806 810 821 821 813 810 807 807 805 800 801 806 809 805 803 808 808 812 816 809 802 802 802 800 799 800 800 799 798 797 798 799 800 802 803 804
661 668 675 681 686 691 695 700 705 709 716 722 725 731 739 745 749 753 757 759 760 766 769 767 766 764 759 757 762 764 765 770 772 773 774 775 779 781 782 784 785 787 792 798 799 797 799 802 806 810 810 809 806 805 810 806 800 802 803 805 806 802 800 802 806 803 802 809 810 810 812 808 803 802 801 801 799 799 799 798 797 797 796 797 798 799 800 801
658 665 670 677 683 688 693 698 702 705 711 718 722 729 737 742 749 756 757 753 748 747 747 751 753 748 745 749 755 760 765 770 772 771 772 774 777 780 782 784 785 787 791 797 799 795 796 806 811 809 806 803 800 799 797 793 792 795 796 801 802 800 803 805 807 806 801 808 811 806 806 805 801 798 797 799 799 799 799 798 797 796 796 796 797 797 797 798
654 662 668 674 680 685 691 696 699 703 707 712 716 721 723 726 733 738 741 746 744 739 740 747 748 745 745 747 749 754 762 769 770 769 771 772 775 781 783 783 789 793 790 791 796 794 797 807 808 802 797 793 793 793 792 791 792 793 795 800 801 800 806 807 806 806 803 807 809 803 806 804 799 796 792 795 800 798 796 795 795 794 794 795 795 795 795 795
652 659 666 672 677 683 689 693 697 701 707 712 714 715 714 714 716 716 724 741 746 741 742 746 747 745 745 747 748 751 757 765 768 768 768 770 774 779 781 783 789 792 788 789 796 800 805 807 800 794 791 789 789 789 790 792 793 795 796 799 803 802 807 811 808 806 804 808 808 804 808 805 797 793 790 792 795 793 791 790 791 791 792 793 793 793 793 793
650 657 665 670 674 681 686 692 696 701 706 709 711 713 714 716 716 716 725 739 747 744 742 746 747 746 747 749 749 750 755 760 764 766 765 767 772 775 778 782 786 786 787 790 796 805 810 804 793 789 789 790 791 789 790 794 795 797 798 801 805 802 804 811 812 810 807 809 812 811 811 807 798 794 790 787 786 785 786 786 785 787 787 788 788 788 789 791
647 654 662 667 673 679 685 692 697 700 703 706 711 713 714 718 719 718 724 736 745 742 739 743 743 744 747 748 747 749 754 755 758 762 762 764 769 772 775 778 781 785 787 785 789 799 801 795 790 787 788 791 794 794 792 798 801 799 798 801 802 799 800 806 810 812 811 812 813 814 817 809 799 798 793 784 782 782 782 783 783 782 782 783 783 783 784 785
644 652 659 665 672 678 684 692 694 697 703 706 710 711 713 717 718 717 720 734 747 744 740 742 743 742 742 744 746 747 750 752 753 756 758 760 764 769 772 771 775 783 785 782 786 792 792 793 793 789 788 790 794 797 795 798 804 801 796 795 795 797 800 805 810 813 817 819 812 814 825 813 791 790 791 782 781 781 779 779 781 780 779 780 781 780 781 781
641 649 655 662 670 676 684 689 690 696 703 705 705 708 712 713 716 715 717 735 748 744 741 741 742 740 737 743 745 745 754 755 751 752 755 759 759 762 770 769 770 777 778 779 783 788 792 795 794 789 790 792 794 798 794 794 805 806 798 791 790 795 800 806 810 810 817 821 813 813 825 817 795 786 784 779 780 780 778 778 778 778 779 779 779 779 779 780
638 645 652 660 666 671 676 679 686 694 697 699 701 707 710 710 714 712 718 744 748 736 740 741 738 736 735 740 740 745 758 755 751 754 753 757 758 758 768 770 770 772 769 777 787 790 793 796 794 790 791 794 797 799 793 791 803 805 799 794 792 795 801 804 807 810 813 816 817 815 817 821 814 794 779 777 781 781 780 780 778 777 778 777 777 777 776 777
636 643 650 657 662 667 668 670 680 687 689 694 700 706 707 709 714 710 721 749 743 725 732 736 735 733 733 739 738 741 749 746 753 759 752 755 759 758 766 768 768 770 765 775 792 792 789 792 792 790 793 797 796 795 790 789 799 802 799 798 794 794 799 800 805 811 811 815 822 819 816 825 820 795 779 779 783 785 782 779 777 775 775 774 773 773 774 774
634 642 649 656 664 671 673 673 679 686 690 695 700 705 706 710 713 711 721 736 729 719 724 730 733 734 734 739 740 740 742 743 751 757 754 756 758 759 765 763 763 769 769 774 786 791 790 791 788 785 790 793 794 796 793 789 794 799 798 797 795 796 798 800 806 810 814 822 826 819 815 824 818 793 784 787 785 785 780 774 771 769 769 770 769 771 772 773
634 640 648 656 664 671 673 677 684 688 692 697 701 704 708 712 712 719 730 725 717 719 721 725 731 731 734 740 742 740 742 747 750 754 757 757 758 758 759 758 760 769 775 778 788 793 792 792 790 789 790 792 794 800 799 792 792 796 798 798 801 803 802 804 806 807 821 830 823 816 811 818 821 798 783 786 781 776 775 770 768 766 767 768 769 771 772 774
634 640 647 654 660 664 668 676 683 687 692 697 702 706 710 712 711 723 728 711 708 722 724 725 729 728 731 736 740 740 742 748 751 754 758 758 761 761 760 761 764 773 781 786 794 797 793 793 793 793 795 794 793 797 800 797 795 795 796 801 809 813 812 815 814 816 831 833 822 821 816 817 824 803 778 776 773 769 770 769 768 768 769 770 771 772 773 775
635 641 648 655 660 663 667 673 679 685 692 695 701 706 707 714 718 717 713 703 708 721 722 721 723 724 728 730 735 739 741 749 751 751 754 757 762 762 760 762 765 778 790 791 795 796 795 795 794 795 797 793 790 796 803 803 799 797 797 803 815 824 828 832 830 829 833 831 825 826 823 820 819 799 779 775 770 767 767 766 767 768 769 771 772 773 774 775
637 643 652 658 662 666 668 674 680 686 692 696 701 702 700 714 717 704 702 705 704 707 709 713 715 720 727 730 734 737 739 746 749 749 751 754 761 763 758 756 756 767 780 786 793 796 798 798 796 796 796 793 790 794 803 806 803 800 799 806 816 826 838 842 836 832 830 828 827 825 824 822 812 791 778 773 768 765 764 764 766 766 768 769 770 772 773 774
639 645 654 659 663 667 668 674 681 685 692 696 699 699 700 710 704 691 698 702 696 697 702 707 715 721 726 728 731 733 738 746 745 745 751 755 762 765 759 754 752 755 766 779 785 788 795 798 796 794 792 791 790 790 793 795 800 798 792 798 807 812 823 830 827 825 826 829 831 828 823 816 803 785 772 768 766 765 765 765 766 766 767 768 769 770 772 772
641 649 655 660 664 667 669 675 681 685 691 694 695 697 698 697 689 685 692 692 692 698 700 704 712 723 729 727 728 729 733 744 745 745 751 753 754 756 753 752 750 750 760 775 778 777 784 791 794 796 793 789 791 791 788 789 799 799 791 797 804 799 802 817 823 819 820 828 831 828 818 802 787 775 766 765 766 765 766 765 766 767 767 768 769 768 769 770
643 651 656 660 663 666 670 675 680 686 688 686 691 695 688 678 674 676 678 679 686 692 699 709 714 723 731 730 731 730 728 736 742 745 750 750 748 749 747 746 744 744 750 761 769 770 778 791 797 797 795 792 794 794 789 789 796 798 798 801 801 795 795 811 825 823 820 824 821 817 811 795 785 776 763 762 765 766 767 766 766 767 767 767 768 767 767 767
642 649 654 658 661 665 670 674 679 687 686 682 685 684 675 666 663 667 670 673 681 685 694 710 713 715 724 726 729 729 727 733 739 742 747 749 746 741 741 741 737 739 740 746 757 758 769 794 802 796 796 797 797 796 791 790 792 795 802 799 793 797 797 800 815 823 825 824 814 809 805 795 794 786 767 761 766 767 766 765 765 767 767 767 765 765 766 765
639 647 653 658 660 664 669 675 680 685 685 682 679 672 666 664 661 662 667 670 677 683 692 703 705 706 713 718 723 724 726 732 736 738 742 746 740 731 734 739 735 736 735 738 750 750 757 787 804 799 799 799 796 795 794 794 793 791 794 792 792 803 806 803 812 820 824 824 813 805 802 796 793 785 770 764 765 763 763 763 764 764 764 764 763 764 764 765
639 648 656 658 660 665 669 675 681 684 683 680 675 667 663 663 660 659 663 667 674 683 688 693 696 701 706 710 717 721 723 727 733 736 737 741 738 728 726 732 734 736 735 736 745 747 749 773 798 803 798 797 796 794 794 797 796 792 792 793 794 798 801 802 804 806 813 819 814 805 803 796 784 773 767 764 760 758 758 759 759 760 760 760 761 762 763 764
638 645 654 656 659 665 671 677 682 683 679 670 664 659 657 660 661 659 660 664 671 678 682 686 690 696 702 706 712 717 720 724 730 733 733 734 736 731 723 725 731 735 736 737 742 748 750 762 788 804 801 798 798 794 790 791 793 794 795 797 798 797 798 800 798 795 801 811 811 808 807 792 770 761 760 759 756 754 754 755 757 757 757 757 759 760 761 763
635 642 650 654 659 664 670 678 681 677 670 660 656 656 657 660 663 662 660 661 667 672 673 679 685 689 695 703 708 712 717 722 726 729 730 729 732 733 725 721 727 732 738 742 743 747 753 763 787 806 804 798 796 793 793 791 786 786 788 790 792 793 797 804 806 797 795 801 802 804 807 787 760 754 755 754 753 752 752 753 755 756 756 756 757 758 760 761
633 638 645 650 656 660 664 670 670 663 659 657 655 655 656 658 661 663 663 662 666 670 669 674 681 685 689 695 701 707 713 719 722 723 725 724 724 726 721 718 723 728 736 745 746 747 754 769 790 803 800 797 797 798 802 800 790 786 786 783 784 787 789 798 805 799 796 801 799 801 805 785 759 753 754 753 754 755 757 756 754 756 757 756 757 758 760 761
633 637 644 650 655 656 659 665 667 663 660 656 654 655 657 658 659 663 664 664 668 670 670 674 678 682 686 688 695 704 709 714 717 717 718 721 721 719 717 717 722 728 735 743 746 746 752 767 787 799 799 795 795 796 799 799 793 787 785 782 781 783 782 785 790 791 796 801 799 804 807 784 758 753 756 757 758 758 760 760 758 757 757 758 759 759 760 761
632 637 646 654 658 658 655 655 657 660 659 655 655 661 661 658 659 662 664 665 667 669 671 674 675 678 682 684 691 700 704 709 714 714 715 719 721 719 716 717 721 726 731 734 737 742 750 763 780 796 802 800 799 798 794 793 792 786 781 782 782 779 781 785 785 787 795 797 793 802 804 780 758 757 760 760 759 757 757 760 761 759 758 759 759 759 760 761
629 639 650 656 659 659 655 650 648 653 658 658 659 663 662 660 662 662 662 664 665 665 670 674 673 676 680 684 692 698 699 703 710 714 714 716 722 723 719 717 719 722 724 726 728 735 746 756 765 777 789 793 791 787 777 777 786 786 781 781 781 779 780 784 787 792 798 794 790 795 791 771 758 760 762 760 759 756 754 757 760 759 759 759 759 759 761 761
621 634 649 659 664 662 658 655 652 652 657 659 661 662 661 664 666 663 662 665 666 664 669 673 673 677 682 687 694 701 700 700 706 712 714 718 725 727 723 720 721 722 723 725 728 734 744 751 752 755 761 761 760 759 757 763 777 782 778 778 779 778 777 780 788 794 792 791 792 788 778 767 760 760 761 757 756 755 752 753 756 757 758 759 758 759 760 761
618 624 633 644 656 661 660 660 655 648 649 652 655 657 659 663 666 666 667 668 666 665 670 674 673 678 685 688 693 700 700 700 705 709 713 721 728 730 728 725 725 726 726 726 729 734 743 749 748 747 748 745 745 750 752 757 767 772 773 778 780 779 779 781 786 785 782 791 795 781 773 770 760 757 758 754 753 755 753 752 752 752 756 758 758 760 761 761
620 622 624 624 631 639 645 649 647 643 643 646 649 651 657 662 664 666 668 669 666 665 670 677 676 675 679 682 688 697 701 704 709 708 711 721 729 732 732 731 732 732 729 729 731 733 741 748 746 746 748 745 745 750 750 752 758 763 769 775 777 779 782 782 781 776 775 786 785 770 768 767 755 753 755 750 750 751 749 749 750 750 753 756 758 761 760 761
622 625 629 627 626 626 629 636 641 642 642 644 648 649 652 658 659 660 663 668 670 666 667 676 678 676 677 679 683 693 698 702 706 707 710 720 726 729 733 735 736 734 731 732 734 735 739 745 744 746 751 750 748 751 751 751 756 759 764 769 772 777 779 776 774 769 767 772 767 760 764 761 748 747 749 745 745 745 745 748 749 748 751 754 757 759 759 760
629 630 630 630 630 630 632 638 642 643 643 645 649 648 648 652 654 656 658 661 667 667 666 670 674 675 677 679 681 686 687 688 694 701 708 718 724 726 728 732 735 736 735 735 737 738 740 744 744 745 751 754 751 749 751 753 756 758 761 765 768 774 777 774 770 765 765 767 761 760 769 761 741 738 742 742 742 743 745 747 745 745 749 752 755 756 756 757
634 633 631 630 632 632 634 638 640 641 643 645 646 646 647 648 649 653 657 656 657 661 663 666 671 675 677 679 680 681 681 681 687 694 699 705 712 715 717 722 729 735 737 736 737 738 742 746 745 745 755 758 750 750 755 756 757 761 763 762 763 766 769 767 763 760 763 767 765 769 772 754 733 734 741 739 740 743 744 744 743 744 747 749 750 752 752 752
635 635 632 630 633 633 633 636 640 640 638 637 638 640 643 646 647 652 659 660 656 658 660 663 668 674 678 680 678 676 678 680 684 690 693 695 700 704 708 714 719 724 730 734 736 737 739 743 745 748 756 755 749 752 757 759 766 768 757 750 751 753 755 758 758 758 758 761 764 766 755 735 729 738 741 738 741 743 741 741 741 741 743 745 746 747 748 749